Location: Burland Observatory
(39.4088°N, 105.4217°W)
Time: 01:29:38
(UTC-07:00)

Vanguard 3 - Pass Details

Date: 17 December 2019
Orbit: 508 x 3263 km, 33.3° (Epoch: 17 January)

Event Time Altitude Azimuth Distance (km) Brightness Sun altitude
Rises 09:50:17 0° 271° (W) 3,962 10.4 20.5°
Reaches altitude 10° 09:52:37 10° 266° (W) 3,275 10.1 20.8°
Maximum altitude 10:00:52 51° 193° (SSW) 2,238 10.2 21.5°
Drops below altitude 10° 10:15:10 10° 124° (SE) 5,488 12.5 22.8°
Sets 10:20:23 0° 121° (ESE) 6,823 12.7 23.2°
